Location: Kelshall
(52.0000°N, 0.0500°W)
Time: 05:28:33
(UTC+00:00)

Sich 1 Rocket - Pass Details

Date: 18 September 2020
Orbit: 617 x 652 km, 82.5° (Epoch: 18 October)

Event Time Altitude Azimuth Distance (km) Brightness Sun altitude
Rises 19:21:23 0° 186° (S) 2,919 6.9 -12.1°
Reaches altitude 10° 19:23:36 10° 186° (S) 2,022 6.1 -12.4°
Maximum altitude 19:28:06 83° 100° (E) 654 3.6 -13.0°
Drops below altitude 10° 19:32:41 10° 12° (NNE) 2,059 6.3 -13.7°
Sets 19:34:57 0° 12° (NNE) 2,978 7.2 -14.0°
